Pecs, Hungary

4:13 PM CEST on June 24, 2017 (GMT +0200)
Pecs

Weather History for LHPP - August, 2014

Change the Weather History Date:

Tuesday, August 12, 2014

  Actual Average Record
Temperature  
Mean Temperature 74 °F -  
Max Temperature 84 °F 76 °F - ()
Min Temperature 63 °F 56 °F - ()
Cooling Degree Days 8    
Growing Degree Days 24 (Base 50)    
Moisture  
Dew Point 60 °F    
Average Humidity 58    
Maximum Humidity 83    
Minimum Humidity 37    
Precipitation  
Precipitation 0.00 in 0.07 in - ()
Sea Level Pressure  
Sea Level Pressure 29.95 in    
Wind  
Wind Speed 5 mph ()    
Max Wind Speed 9 mph    
Max Gust Speed -    
Visibility 6.2 miles    
Events      
T = Trace of Precipitation, MM = Missing Value Source: Averaged Metar Reports

Daily Weather History Graph

Daily Weather History Graph

Search for Another Location

Airport or City:

Trip Planner

Search our weather history database for the weather conditions in past years. The results will help you decide how hot, cold, wet, or windy it might be!

Date:

Astronomy

Aug. 12, 2014 Rise Set
Actual Time 5:42 AM CEST 8:00 PM CEST
Civil Twilight 5:09 AM CEST 8:33 PM CEST
Nautical Twilight 4:28 AM CEST 9:14 PM CEST
Astronomical Twilight 3:41 AM CEST 10:00 PM CEST
Moon 8:45 PM CEST (8/12) 7:47 AM CEST (8/12)
Length of Visible Light 15h 24m
Length of Day
14h 18m
Waning Gibbous, 96% of the Moon is Illuminated
Aug 12
Waning Gibbous
Aug 17
Last Quarter
Aug 25
New
Sep 2
First Quarter
Sep 9
Full

Hourly Weather History & Observations

Time (CEST) Temp. Heat Index Dew Point Humidity Pressure Visibility Wind Dir Wind Speed Gust Speed Precip Events Conditions
12:00 AM 72 °F - 63 °F 66% 29.92 in 31 mi NNE 8.9 mph - -   Partly Cloudy
12:45 AM 71.6 °F - 62.6 °F 73% 29.95 in - North 9.2 mph - N/A   Clear
1:00 AM 71 °F - 62 °F 65% 29.93 in 31 mi North 8.9 mph - -   Partly Cloudy
1:45 AM 69.8 °F - 60.8 °F 73% 29.95 in - NNW 6.9 mph - N/A   Clear
2:00 AM 69 °F - 61 °F 69% 29.94 in 31 mi NNW 6.7 mph - -   Partly Cloudy
2:45 AM 69.8 °F - 59.0 °F 68% 29.95 in - NNW 5.8 mph - N/A   Clear
3:00 AM 69 °F - 60 °F 64% 29.94 in 31 mi NNW 4.5 mph - -   Partly Cloudy
3:45 AM 68.0 °F - 57.2 °F 68% 29.95 in - North 1.2 mph - N/A   Clear
4:00 AM 68 °F - 58 °F 62% 29.94 in 31 mi North 2.2 mph - -   Partly Cloudy
4:45 AM 66.2 °F - 60.8 °F 83% 29.98 in - SSW 1.2 mph - N/A   Clear
5:00 AM 66 °F - 61 °F 78% 29.95 in 31 mi SSW 2.2 mph - -   Partly Cloudy
5:45 AM 64.4 °F - 57.2 °F 77% 29.98 in - North 2.3 mph - N/A   Clear
6:00 AM 65 °F - 57 °F 69% 29.95 in 37 mi North 2.2 mph - -   Partly Cloudy
6:15 AM 68.0 °F - 55.4 °F 64% 29.98 in - NW 2.3 mph - N/A   Clear
6:45 AM 66.2 °F - 57.2 °F 73% 29.98 in - WNW 2.3 mph - N/A   Clear
7:00 AM 67 °F - 56 °F 61% 29.96 in 47 mi WNW 2.2 mph - -   Partly Cloudy
7:00 AM - - - N/A% - - Variable 3.5 mph - N/A   Clear
7:15 AM 69.8 °F - 57.2 °F 64% 29.98 in - North 1.2 mph - N/A   Clear
7:45 AM 71.6 °F - 57.2 °F 60% 29.98 in - Calm Calm - N/A   Clear
8:00 AM 71 °F - 58 °F 54% 29.96 in 47 mi Calm Calm - -   Partly Cloudy
8:15 AM 71.6 °F - 57.2 °F 60% 29.98 in - North 3.5 mph - N/A   Clear
8:45 AM 71.6 °F - 57.2 °F 60% 29.98 in - NE 5.8 mph - N/A   Clear
9:00 AM 72 °F - 57 °F 49% 29.96 in 47 mi NE 6.7 mph - -   Partly Cloudy
9:15 AM 73.4 °F - 57.2 °F 57% 29.98 in - NNE 6.9 mph - N/A   Clear
9:45 AM 75.2 °F - 57.2 °F 53% 29.98 in 6.2 mi North 5.8 mph - N/A   Mostly Cloudy
10:00 AM 74 °F - 57 °F 45% 29.96 in 47 mi North 6.7 mph - -   Partly Cloudy
10:00 AM - - - N/A% - 6.2 mi NNE 9.2 mph - N/A   Scattered Clouds
10:15 AM 75.2 °F - 59.0 °F 57% 29.98 in 6.2 mi NE 4.6 mph - N/A   Mostly Cloudy
10:45 AM 77.0 °F - 57.2 °F 50% 30.01 in 6.2 mi NNE 2.3 mph - N/A   Mostly Cloudy
11:00 AM 77 °F - 57 °F 39% 29.97 in 47 mi NNE 2.2 mph - -   Partly Cloudy
11:15 AM 77.0 °F - 59.0 °F 54% 29.98 in 6.2 mi ENE 4.6 mph - N/A   Mostly Cloudy
12:00 PM 78 °F - 58 °F 39% 29.96 in 47 mi ENE 4.5 mph - -   Partly Cloudy
12:15 PM 78.8 °F - 60.8 °F 54% 29.98 in 6.2 mi East 4.6 mph - N/A   Mostly Cloudy
1:00 PM 81 °F - 61 °F 40% 29.94 in 47 mi SSE 2.2 mph - -   Partly Cloudy
1:15 PM 80.6 °F 81.5 °F 60.8 °F 51% 29.98 in 6.2 mi WNW 2.3 mph - N/A   Scattered Clouds
1:45 PM 80.6 °F 81.1 °F 59.0 °F 48% 29.98 in 6.2 mi East 3.5 mph - N/A   Partly Cloudy
2:00 PM 81 °F - 60 °F 38% 29.93 in 47 mi East 4.5 mph - -   Partly Cloudy
2:15 PM 82.4 °F 83.4 °F 62.6 °F 51% 29.95 in 6.2 mi ENE 4.6 mph - N/A   Partly Cloudy
2:45 PM 82.4 °F 82.9 °F 60.8 °F 48% 29.95 in 6.2 mi North 3.5 mph - N/A   Partly Cloudy
3:00 PM 83 °F - 61 °F 37% 29.92 in 47 mi North 4.5 mph - -   Partly Cloudy
3:15 PM 84.2 °F 85.6 °F 64.4 °F 51% 29.95 in 6.2 mi SSW 2.3 mph - N/A   Partly Cloudy
3:45 PM 82.4 °F 82.9 °F 60.8 °F 48% 29.95 in 6.2 mi WNW 4.6 mph - N/A   Partly Cloudy
4:00 PM 83 °F - 62 °F 38% 29.91 in 47 mi WNW 4.5 mph - -   Partly Cloudy
4:00 PM - - - N/A% - - Variable 3.5 mph - N/A   Clear
4:15 PM 82.4 °F 83.4 °F 62.6 °F 51% 29.95 in 6.2 mi West 4.6 mph - N/A   Partly Cloudy
4:45 PM 84.2 °F 85.6 °F 64.4 °F 51% 29.95 in - NNW 5.8 mph - N/A   Clear
5:00 PM 83 °F - 65 °F 44% 29.91 in 47 mi NNW 6.7 mph - -   Partly Cloudy
5:15 PM 84.2 °F 85.6 °F 64.4 °F 51% 29.95 in - North 2.3 mph - N/A   Clear
5:45 PM 82.4 °F 83.4 °F 62.6 °F 51% 29.95 in - NNE 5.8 mph - N/A   Clear
6:00 PM 82 °F - 62 °F 40% 29.90 in 47 mi NNE 6.7 mph - -   Partly Cloudy
7:00 PM 79 °F - 63 °F 49% 29.91 in 47 mi NNE 6.7 mph - -   Partly Cloudy
7:15 PM 78.8 °F - 62.6 °F 57% 29.95 in - North 5.8 mph - N/A   Clear
7:45 PM 75.2 °F - 62.6 °F 65% 29.95 in - NNE 4.6 mph - N/A   Clear
8:00 PM 76 °F - 62 °F 53% 29.91 in 47 mi NNE 4.5 mph - -   Partly Cloudy
8:15 PM 73.4 °F - 62.6 °F 69% 29.95 in - NE 5.8 mph - N/A   Clear
8:45 PM 71.6 °F - 60.8 °F 69% 29.95 in - NE 6.9 mph - N/A   Clear
9:00 PM 71 °F - 61 °F 63% 29.93 in 47 mi NE 6.7 mph - -   Partly Cloudy
9:15 PM 69.8 °F - 60.8 °F 73% 29.95 in - ENE 5.8 mph - N/A   Clear
9:45 PM 69.8 °F - 59.0 °F 68% 29.95 in - NNE 3.5 mph - N/A   Clear
10:00 PM 69 °F - 60 °F 65% 29.94 in 47 mi NNE 4.5 mph - -   Partly Cloudy
10:45 PM 66.2 °F - 57.2 °F 73% 29.95 in - NE 3.5 mph - N/A   Clear
11:00 PM 67 °F - 57 °F 63% 29.94 in 47 mi NE 4.5 mph - -   Partly Cloudy